1517821201.14,1104,7.31,72798.5,-9.19,-9.61,-9.75,0,*60
1517821202.37,1105,7.31,72796.0,-9.19,-9.53,-9.67,0,*63
1517821203.59,1106,7.31,72800.3,-9.19,-9.49,-9.67,0,*6B
1517821204.85,1107,7.31,72802.3,-9.19,-9.37,-9.53,0,*64
1517821206.1,1108,7.31,72802.3,-9.19,-9.37,-9.41,0,*68
1517821207.35,1109,7.31,72804.0,-9.21,-9.27,-9.37,0,*62
1517821208.61,1110,7.31,72800.0,-9.17,-9.15,-9.23,0,*6B
1517821209.81,1111,7.31,72802.0,-9.19,-9.27,-9.27,0,*61
1517821211.01,1112,7.31,72804.3,-9.19,-9.23,-9.27,0,*66
1517821212.24,1113,7.31,72802.5,-9.19,-9.27,-9.37,0,*62
1517821213.47,1114,7.31,72800.5,-9.19,-9.27,-9.37,0,*65
1517821214.7,1115,7.31,72800.0,-9.19,-9.27,-9.37,0,*64
1517821215.92,1116,7.31,72802.5,-9.17,-9.23,-9.31,0,*6B
1517821217.17,1117,7.31,72804.8,-9.17,-9.15,-9.23,0,*6C
1517821218.43,1118,7.31,72804.0,-9.15,-9.15,-9.19,0,*68
1517821219.65,1119,7.31,72804.3,-9.15,-9.19,-9.19,0,*65
1517821220.9,1120,7.31,72806.3,-9.17,-9.15,-9.19,0,*61
1517821222.15,1121,7.31,72802.3,-9.15,-9.15,-9.19,0,*62
1517821223.41,1122,7.31,72798.8,-9.15,-9.15,-9.19,0,*61
1517821224.68,1123,7.31,72798.3,-9.15,-9.15,-9.15,0,*6C
1517821225.94,1124,7.31,72798.3,-9.15,-9.15,-9.19,0,*67
1517821227.17,1125,7.31,72796.5,-9.13,-9.11,-9.19,0,*64
1517821228.44,1126,7.31,72796.5,-9.11,-9.11,-9.15,0,*69
1517821229.7,1127,7.31,72800.5,-9.11,-9.11,-9.19,0,*64
1517821230.98,1128,7.31,72800.3,-9.11,-9.11,-9.11,0,*63
1517821232.23,1129,7.31,72800.3,-9.13,-9.11,-9.15,0,*64
1517821233.49,1130,7.31,72800.3,-9.11,-9.01,-9.11,0,*6B
1517821234.72,1131,7.31,72798.5,-9.09,-8.97,-9.11,0,*6D
1517821235.92,1132,7.31,72800.0,-9.13,-9.01,-9.19,0,*63
1517821237.18,1133,7.31,72802.8,-9.11,-9.15,-9.19,0,*65
1517821238.43,1134,7.31,72802.3,-9.09,-9.11,-9.15,0,*63
1517821239.67,1135,7.31,72804.3,-9.09,-9.05,-9.11,0,*63
1517821240.92,1136,7.31,72802.3,-9.13,-9.11,-9.11,0,*6E
1517821242.18,1137,7.31,72800.5,-9.11,-9.11,-9.19,0,*65
1517821243.38,1138,7.31,72802.5,-9.13,-9.19,-9.19,0,*60
1517821244.63,1139,7.31,72804.8,-9.11,-9.15,-9.19,0,*6F
1517821245.86,1140,7.31,72800.3,-9.11,-9.19,-9.19,0,*6D
1517821247.11,1141,7.31,72806.8,-9.11,-9.15,-9.27,0,*6D
1517821248.34,1142,7.31,72806.0,-9.09,-9.11,-9.23,0,*67
1517821249.58,1143,7.31,72800.3,-9.09,-9.15,-9.23,0,*62
1517821250.83,1144,7.31,72806.5,-9.11,-9.11,-9.27,0,*6C
1517821252.06,1145,7.31,72804.3,-9.09,-9.11,-9.23,0,*60
1517821253.32,1146,7.31,72800.8,-9.09,-9.11,-9.11,0,*62
1517821254.55,1147,7.25,72798.5,-9.09,-9.05,-9.11,0,*66
1517821255.79,1148,7.31,72804.0,-9.09,-9.05,-9.11,0,*69
1517821257.02,1149,7.31,72804.8,-9.09,-9.05,-9.11,0,*68
1517821258.22,1150,7.31,72800.3,-9.09,-8.97,-9.05,0,*6F
1517821259.44,1151,7.31,72802.5,-9.07,-8.97,-9.05,0,*60
1517821260.69,1152,7.31,72800.8,-9.09,-9.11,-9.15,0,*63
1517821261.93,1153,7.31,72802.8,-9.09,-9.15,-9.27,0,*67
1517821263.16,1154,7.31,72800.8,-9.09,-9.23,-9.37,0,*64
1517821264.39,1155,7.31,72802.8,-9.09,-9.23,-9.37,0,*65
1517821265.59,1156,7.31,72798.8,-9.09,-9.23,-9.23,0,*63
1517821266.8,1157,7.31,72798.3,-9.09,-9.23,-9.27,0,*66
1517821268.0,1158,7.31,72800.0,-9.09,-9.23,-9.27,0,*69
1517821269.22,1159,7.31,72802.3,-9.07,-9.23,-9.23,0,*62
1517821270.44,1160,7.31,72796.5,-9.07,-9.23,-9.23,0,*68
1517821271.68,1161,7.31,72798.8,-9.07,-9.11,-9.27,0,*6C
1517821272.93,1162,7.31,72798.8,-9.07,-9.15,-9.23,0,*6F
1517821274.17,1163,7.31,72802.0,-9.09,-9.15,-9.23,0,*60
1517821275.41,1164,7.31,72802.0,-9.07,-9.15,-9.23,0,*69
1517821276.66,1165,7.31,72800.5,-9.07,-9.15,-9.23,0,*68
1517821277.94,1166,7.31,72804.5,-9.07,-9.15,-9.41,0,*6F
1517821279.17,1167,7.31,72802.5,-9.09,-9.23,-9.37,0,*64
1517821280.42,1168,7.31,72804.0,-9.07,-9.23,-9.41,0,*64
1517821281.64,1169,7.31,72806.8,-9.09,-9.23,-9.49,0,*63
1517821282.87,1170,7.31,72802.8,-9.09,-9.27,-9.49,0,*6F
1517821284.12,1171,7.31,72800.8,-9.07,-9.27,-9.49,0,*60
1517821285.35,1172,7.31,72800.8,-9.09,-9.27,-9.37,0,*64
1517821286.6,1173,7.31,72802.0,-9.07,-9.27,-9.37,0,*6B
1517821287.84,1174,7.31,72802.3,-9.07,-9.27,-9.49,0,*65
1517821289.09,1175,7.31,72802.5,-9.07,-9.23,-9.37,0,*69
1517821290.32,1176,7.31,72804.5,-9.09,-9.23,-9.37,0,*64
1517821291.56,1177,7.31,72800.5,-9.09,-9.15,-9.27,0,*61
1517821292.81,1178,7.31,72802.0,-9.07,-9.15,-9.27,0,*60
1517821294.09,1179,7.31,72800.8,-9.07,-9.15,-9.37,0,*60
1517821295.32,1180,7.31,72802.5,-9.09,-9.15,-9.23,0,*6D
1517821296.57,1181,7.31,72802.3,-9.07,-9.11,-9.23,0,*66
1517821297.82,1182,7.31,72800.0,-9.07,-9.15,-9.23,0,*61
1517821299.07,1183,7.31,72800.3,-9.07,-9.15,-9.23,0,*60
1517821300.32,1184,7.31,72802.0,-9.07,-9.15,-9.23,0,*67
1517821301.57,1185,7.31,72804.0,-9.07,-9.15,-9.27,0,*62
1517821302.82,1186,7.31,72800.5,-9.07,-9.15,-9.23,0,*65
1517821304.06,1187,7.31,72800.3,-9.07,-9.15,-9.23,0,*64
1517821305.3,1188,7.31,72798.3,-9.09,-9.15,-9.23,0,*65
1517821306.55,1189,7.31,72796.5,-9.07,-9.15,-9.27,0,*6E
1517821307.77,1190,7.31,72798.0,-9.07,-9.23,-9.27,0,*63
1517821309.02,1191,7.31,72800.3,-9.07,-9.15,-9.23,0,*63
1517821310.27,1192,7.31,72800.8,-9.07,-9.15,-9.27,0,*64
1517821311.47,1193,7.31,72798.5,-9.05,-9.05,-9.19,0,*6B
1517821312.7,1194,7.31,72796.5,-9.05,-9.05,-9.11,0,*64
1517821313.93,1195,7.31,72802.5,-9.05,-9.01,-9.11,0,*61
1517821315.16,1196,7.31,72802.8,-9.05,-9.01,-9.11,0,*62
1517821316.37,1197,7.31,72802.0,-9.05,-9.01,-9.05,0,*66
1517821317.6,1198,7.31,72800.5,-9.05,-9.01,-9.11,0,*6C
1517821318.87,1199,7.31,72802.5,-9.03,-9.11,-9.11,0,*6A
1517821320.12,1200,7.31,72802.3,-9.03,-9.11,-9.19,0,*61
1517821321.35,1201,7.31,72800.3,-9.05,-9.11,-9.19,0,*66
1517821322.6,1202,7.31,72800.3,-9.03,-9.11,-9.23,0,*6A
1517821323.83,1203,7.31,72806.5,-9.05,-9.11,-9.19,0,*64
1517821325.05,1204,7.31,72802.8,-9.05,-9.11,-9.23,0,*6A
1517821326.25,1205,7.31,72800.0,-9.05,-9.19,-9.31,0,*60
1517821327.44,1206,7.31,72804.8,-9.05,-9.19,-9.31,0,*63
1517821328.66,1207,7.31,72802.3,-9.03,-9.19,-9.23,0,*67
1517821329.89,1208,7.31,72806.5,-9.03,-9.05,-9.19,0,*6C
1517821331.11,1209,7.31,72802.5,-9.03,-9.05,-9.19,0,*6D
1517821332.31,1210,7.31,72800.3,-9.05,-9.05,-9.05,0,*6E
1517821333.54,1211,7.31,72802.0,-9.03,-9.01,-9.05,0,*6D
1517821334.76,1212,7.31,72802.8,-8.99,-8.97,-9.05,0,*62
1517821336.01,1213,7.31,72802.5,-9.03,-9.01,-9.11,0,*6A
1517821337.22,1214,7.31,72800.5,-9.05,-9.01,-9.05,0,*6E
1517821338.47,1215,7.31,72802.0,-9.03,-9.05,-9.11,0,*68
1517821339.72,1216,7.31,72800.3,-9.03,-9.05,-9.11,0,*6B
1517821340.94,1217,7.31,72800.8,-8.99,-9.05,-9.05,0,*6D
1517821342.17,1218,7.31,72800.0,-8.99,-9.05,-9.05,0,*62
1517821343.39,1219,7.31,72800.5,-8.99,-9.05,-9.27,0,*63
1517821344.61,1220,7.31,72800.5,-8.99,-9.05,-9.27,0,*69
1517821345.83,1221,7.31,72800.3,-8.99,-9.19,-9.27,0,*65
1517821347.08,1222,7.31,72800.3,-8.97,-9.15,-9.41,0,*64
1517821348.33,1223,7.31,72802.8,-9.03,-9.31,-9.45,0,*6B
1517821349.58,1224,7.31,72800.8,-9.03,-9.31,-9.45,0,*6C
1517821350.83,1225,7.31,72800.3,-9.03,-9.31,-9.49,0,*61
1517821352.11,1226,7.31,72800.5,-9.03,-9.37,-9.49,0,*64
1517821353.35,1227,7.31,72800.0,-9.05,-9.37,-9.57,0,*6C
1517821354.62,1228,7.31,72802.3,-9.03,-9.45,-9.57,0,*60
1517821355.89,1229,7.31,72802.8,-9.03,-9.45,-9.57,0,*61
1517821357.16,1230,7.31,72802.3,-9.03,-9.45,-9.57,0,*69
1517821358.43,1231,7.31,72802.0,-9.03,-9.45,-9.57,0,*68
1517821359.7,1232,7.31,72800.3,-9.03,-9.45,-9.57,0,*6B
1517821360.94,1233,7.31,72802.8,-9.05,-9.45,-9.57,0,*6C
1517821362.19,1234,7.31,72800.3,-9.05,-9.37,-9.49,0,*61
1517821363.42,1235,7.31,72802.3,-9.05,-9.31,-9.45,0,*6A
1517821364.7,1236,7.31,72800.8,-9.03,-9.37,-9.49,0,*65
1517821365.95,1237,7.31,72802.3,-9.05,-9.37,-9.49,0,*62
1517821367.2,1238,7.31,72806.0,-9.05,-9.37,-9.49,0,*6D
1517821368.48,1239,7.31,72802.5,-9.03,-9.37,-9.49,0,*6A
1517821369.72,1240,7.31,72804.8,-9.03,-9.31,-9.45,0,*6E
1517821370.92,1241,7.31,72806.8,-9.05,-9.23,-9.31,0,*69
1517821372.11,1242,7.31,72806.0,-9.05,-9.19,-9.31,0,*63
1517821373.33,1243,7.31,72800.5,-9.03,-9.19,-9.23,0,*67
1517821374.53,1244,7.31,72804.3,-9.05,-9.19,-9.19,0,*6F
1517821375.76,1245,7.25,72802.0,-9.05,-9.05,-9.11,0,*6B
1517821376.99,1246,7.31,72804.5,-9.05,-9.01,-9.11,0,*6C
1517821378.22,1247,7.31,72800.0,-9.03,-9.01,-9.05,0,*6E
1517821379.47,1248,7.31,72802.8,-9.03,-9.01,-9.11,0,*64
1517821380.72,1249,7.31,72800.8,-9.03,-9.05,-9.11,0,*61
1517821381.98,1250,7.31,72800.3,-9.03,-9.05,-9.11,0,*69
1517821383.23,1251,7.31,72800.0,-9.03,-9.05,-9.11,0,*68
1517821384.48,1252,7.31,72804.5,-9.05,-9.11,-9.11,0,*68
1517821385.76,1253,7.31,72802.5,-9.03,-9.11,-9.15,0,*6B
1517821387.01,1254,7.31,72802.0,-9.03,-9.11,-9.23,0,*69
1517821388.28,1255,7.31,72802.5,-8.99,-9.15,-9.15,0,*6B
1517821389.53,1256,7.31,72804.5,-8.99,-9.15,-9.31,0,*6E
1517821390.74,1257,7.31,72800.8,-8.99,-9.19,-9.31,0,*63
1517821391.99,1258,7.31,72806.5,-8.99,-9.27,-9.41,0,*66
1517821393.23,1259,7.31,72804.5,-8.99,-9.31,-9.45,0,*64
1517821394.48,1260,7.31,72800.5,-9.03,-9.31,-9.57,0,*6F
1517821395.75,1261,7.31,72798.8,-9.03,-9.37,-9.57,0,*68
1517821397.02,1262,7.31,72798.8,-8.99,-9.45,-9.53,0,*68
1517821398.3,1263,7.31,72800.5,-8.99,-9.41,-9.53,0,*6D
1517821399.57,1264,7.31,72800.0,-9.03,-9.49,-9.61,0,*61
1517821400.84,1265,7.31,72800.5,-9.03,-9.49,-9.61,0,*60
1517821402.08,1266,7.31,72800.5,-9.03,-9.57,-9.71,0,*6D
1517821403.34,1267,7.31,72798.8,-9.03,-9.57,-9.61,0,*6D
1517821404.58,1268,7.31,72800.8,-9.03,-9.57,-9.75,0,*67
1517821405.8,1269,7.31,72802.5,-9.05,-9.57,-9.71,0,*64
1517821407.07,1270,7.31,72802.3,-9.03,-9.49,-9.61,0,*64
1517821408.34,1271,7.31,72802.5,-9.03,-9.49,-9.61,0,*65
1517821409.56,1272,7.31,72802.8,-9.05,-9.49,-9.71,0,*61
1517821410.78,1273,7.31,72800.0,-9.05,-9.45,-9.71,0,*6C
1517821412.03,1274,7.31,72800.3,-9.05,-9.61,-9.61,0,*6C
1517821413.27,1275,7.31,72804.0,-9.03,-9.57,-9.71,0,*6F
1517821414.51,1276,7.31,72800.8,-9.03,-9.57,-9.75,0,*68
1517821415.75,1277,7.31,72804.5,-9.05,-9.49,-9.57,0,*60
1517821417.0,1278,7.31,72804.0,-9.05,-9.45,-9.61,0,*66
1517821418.25,1279,7.31,72800.0,-9.05,-9.49,-9.61,0,*6B
1517821419.49,1280,7.31,72804.5,-9.05,-9.49,-9.57,0,*68
1517821420.73,1281,7.31,72804.0,-9.07,-9.53,-9.67,0,*63
1517821421.97,1282,7.31,72800.5,-9.07,-9.53,-9.67,0,*60
1517821423.21,1283,7.31,72804.8,-9.07,-9.49,-9.67,0,*6A
1517821424.45,1284,7.31,72802.5,-9.07,-9.53,-9.67,0,*66
1517821425.72,1285,7.31,72802.3,-9.07,-9.49,-9.61,0,*6A
1517821426.97,1286,7.31,72806.8,-9.07,-9.27,-9.37,0,*62
1517821428.2,1287,7.31,72806.0,-9.05,-9.11,-9.19,0,*68
1517821429.42,1288,7.31,72802.0,-9.05,-9.11,-9.23,0,*6E
1517821430.61,1289,7.31,72804.0,-9.05,-9.19,-9.31,0,*64
1517821431.81,1290,7.31,72806.0,-9.05,-9.23,-9.31,0,*65
1517821433.05,1291,7.31,72800.8,-9.07,-9.27,-9.41,0,*65
1517821434.28,1292,7.31,72800.3,-9.05,-9.23,-9.45,0,*64
1517821435.5,1293,7.31,72806.8,-9.05,-9.31,-9.49,0,*6A
1517821436.73,1294,7.31,72810.0,-9.05,-9.31,-9.45,0,*61
1517821437.96,1295,7.31,72806.0,-9.05,-9.19,-9.37,0,*6F
1517821439.18,1296,7.31,72810.5,-9.03,-9.19,-9.31,0,*6C
1517821440.42,1297,7.31,72810.3,-9.03,-9.31,-9.45,0,*64
1517821441.67,1298,7.31,72806.3,-9.05,-9.37,-9.57,0,*68
1517821442.92,1299,7.31,72802.3,-9.05,-9.49,-9.61,0,*65
1517821444.16,1300,7.31,72802.8,-9.05,-9.49,-9.61,0,*64
1517821445.41,1301,7.31,72804.3,-9.05,-9.49,-9.61,0,*65
1517821446.65,1302,7.31,72806.0,-9.07,-9.61,-9.67,0,*68
1517821447.9,1303,7.31,72800.0,-9.05,-9.45,-9.61,0,*6B
1517821449.12,1304,7.31,72806.0,-9.03,-9.19,-9.31,0,*66
1517821450.37,1305,7.31,72804.8,-9.03,-9.11,-9.23,0,*6C
1517821451.59,1306,7.31,72806.3,-9.05,-9.11,-9.19,0,*60
1517821452.79,1307,7.31,72804.3,-9.05,-9.05,-9.19,0,*64
1517821453.99,1308,7.31,72804.8,-9.05,-9.05,-9.19,0,*6B
1517821455.19,1309,7.31,72806.0,-9.05,-9.05,-9.19,0,*6A
1517821456.39,1310,7.31,72800.3,-9.05,-9.05,-9.19,0,*62
1517821457.65,1311,7.31,72804.0,-9.03,-9.01,-9.11,0,*69
1517821458.9,1312,7.31,72800.0,-9.03,-9.05,-9.11,0,*6E
1517821460.17,1313,7.31,72802.3,-9.03,-9.11,-9.11,0,*6A
1517821461.42,1314,7.31,72804.5,-9.03,-9.11,-9.23,0,*6C
1517821462.68,1315,7.31,72806.5,-9.03,-9.11,-9.19,0,*64
1517821463.9,1316,7.31,72808.3,-9.03,-9.05,-9.19,0,*62
1517821465.15,1317,7.31,72804.8,-8.99,-9.01,-9.15,0,*69
1517821466.39,1318,7.31,72804.0,-8.99,-9.05,-9.15,0,*62
1517821467.64,1319,7.31,72806.8,-8.99,-9.01,-9.15,0,*67
1517821468.89,1320,7.31,72804.5,-8.99,-9.05,-9.15,0,*69
1517821470.11,1321,7.31,72806.3,-8.97,-9.01,-9.15,0,*62
1517821471.34,1322,7.31,72806.5,-8.99,-9.01,-9.05,0,*6E
1517821472.53,1323,7.31,72804.5,-8.97,-8.97,-9.05,0,*6F
1517821473.73,1324,7.31,72802.8,-8.97,-9.01,-9.05,0,*66
1517821474.95,1325,7.31,72804.3,-8.97,-9.05,-9.15,0,*62
1517821476.18,1326,7.31,72804.3,-8.97,-9.05,-9.15,0,*61
1517821477.4,1327,7.31,72800.3,-8.97,-9.01,-9.15,0,*64
1517821478.62,1328,7.31,72802.8,-8.97,-9.05,-9.15,0,*6F
1517821479.85,1329,7.31,72804.5,-8.97,-9.05,-9.15,0,*6E
1517821481.09,1330,7.31,72804.0,-8.95,-8.97,-9.11,0,*6A
1517821482.32,1331,7.31,72804.5,-8.93,-9.01,-9.11,0,*63
1517821483.57,1332,7.31,72804.5,-8.95,-9.01,-9.11,0,*66
1517821484.82,1333,7.31,72802.5,-8.95,-8.97,-9.11,0,*69
1517821486.04,1334,7.31,72806.8,-8.93,-8.93,-9.11,0,*6C
1517821487.27,1335,7.31,72804.5,-8.93,-8.93,-9.11,0,*6D
1517821488.52,1336,7.31,72806.3,-8.95,-8.97,-9.11,0,*6C
1517821489.71,1337,7.31,72804.8,-8.93,-8.97,-8.97,0,*64
1517821490.93,1338,7.31,72804.3,-8.95,-8.97,-8.97,0,*6D
1517821492.16,1339,7.31,72800.0,-8.95,-8.93,-9.01,0,*66
1517821493.36,1340,7.31,72804.5,-8.93,-8.97,-9.01,0,*6A
1517821494.56,1341,7.31,72804.8,-8.93,-8.93,-9.01,0,*6F
1517821495.77,1342,7.31,72810.5,-8.93,-8.93,-9.01,0,*6C
1517821496.97,1343,7.31,72804.0,-8.93,-8.93,-9.01,0,*6D
1517821498.17,1344,7.31,72804.5,-8.93,-8.93,-8.97,0,*64
1517821499.39,1345,7.31,72808.0,-8.91,-8.89,-8.97,0,*6C
1517821500.61,1346,7.31,72806.0,-8.91,-8.89,-8.97,0,*6F
1517821501.81,1347,7.31,72808.0,-8.89,-8.85,-8.93,0,*6F
1517821503.01,1348,7.31,72804.5,-8.89,-8.89,-8.93,0,*6C
1517821504.23,1349,7.31,72808.5,-8.91,-8.89,-8.97,0,*60
1517821505.46,1350,7.31,72806.3,-8.91,-8.93,-8.93,0,*67
1517821506.66,1351,7.31,72810.5,-8.89,-8.85,-8.93,0,*68
1517821507.86,1352,7.31,72806.5,-8.89,-8.85,-8.89,0,*60
1517821509.06,1353,7.31,72804.0,-8.89,-8.85,-8.89,0,*61
1517821510.27,1354,7.31,72806.8,-8.89,-8.85,-8.89,0,*66
1517821511.47,1355,7.31,72806.5,-8.89,-8.85,-8.93,0,*6C
1517821512.67,1356,7.31,72806.8,-8.89,-8.89,-8.89,0,*68
1517821513.9,1357,7.31,72810.5,-8.87,-8.85,-8.93,0,*60
1517821515.12,1358,7.31,72804.3,-8.85,-8.81,-8.89,0,*62
1517821516.35,1359,7.31,72804.8,-8.87,-8.93,-8.93,0,*69
1517821517.57,1360,7.31,72806.0,-8.87,-8.93,-8.93,0,*63
1517821518.8,1361,7.31,72806.8,-8.87,-8.85,-8.93,0,*65
1517821520.03,1362,7.31,72810.3,-8.87,-8.85,-8.89,0,*6D
1517821521.26,1363,7.31,72810.3,-8.87,-8.85,-8.93,0,*67
1517821522.49,1364,7.31,72804.0,-8.85,-8.81,-8.81,0,*65
1517821523.71,1365,7.31,72804.0,-8.85,-8.81,-8.89,0,*6C
1517821524.92,1366,7.31,72802.8,-8.85,-8.85,-8.89,0,*6B
1517821526.14,1367,7.31,72806.8,-8.85,-8.81,-8.89,0,*6E
1517821527.37,1368,7.31,72804.8,-8.87,-8.85,-8.93,0,*6C
1517821528.59,1369,7.31,72806.0,-8.87,-8.85,-8.93,0,*6D
1517821529.8,1370,7.31,72806.5,-8.85,-8.89,-8.89,0,*60
1517821531.0,1371,7.31,72804.8,-8.85,-8.85,-8.89,0,*6D
1517821532.21,1372,7.31,72804.5,-8.85,-8.89,-8.89,0,*62
1517821533.41,1373,7.31,72800.8,-8.85,-8.85,-8.89,0,*6F
1517821534.61,1374,7.31,72802.5,-8.85,-8.85,-8.89,0,*68
1517821535.83,1375,7.31,72804.0,-8.85,-8.81,-8.89,0,*6D
1517821537.04,1376,7.31,72800.3,-8.83,-8.85,-8.89,0,*6C
1517821538.24,1377,7.31,72804.5,-8.83,-8.85,-8.89,0,*6D
1517821539.45,1378,7.31,72806.0,-8.83,-8.85,-8.89,0,*62
1517821540.65,1379,7.31,72806.3,-8.83,-8.85,-8.89,0,*63
1517821541.87,1380,7.31,72804.5,-8.83,-8.81,-8.89,0,*61
1517821543.12,1381,7.31,72806.5,-8.81,-8.81,-8.89,0,*62
1517821544.34,1382,7.31,72806.0,-8.81,-8.85,-8.85,0,*69
1517821545.55,1383,7.31,72804.5,-8.83,-8.85,-8.89,0,*66
1517821546.79,1384,7.31,72804.5,-8.81,-8.81,-8.89,0,*67
1517821548.04,1385,7.31,72802.8,-8.81,-8.81,-8.89,0,*66
1517821549.28,1386,7.31,72804.8,-8.81,-8.81,-8.85,0,*69
1517821550.51,1387,7.31,72810.0,-8.81,-8.85,-8.89,0,*60
1517821551.71,1388,7.31,72806.8,-8.83,-8.85,-8.97,0,*62
1517821552.93,1389,7.31,72806.0,-8.81,-8.89,-8.97,0,*6D
1517821554.16,1390,7.31,72806.5,-8.81,-8.97,-9.01,0,*64
1517821555.41,1391,7.31,72804.8,-8.81,-9.01,-9.11,0,*6A
1517821556.62,1392,7.31,72806.5,-8.81,-8.97,-9.23,0,*66
1517821557.85,1393,7.31,72806.5,-8.81,-9.01,-9.23,0,*69
1517821559.13,1394,7.31,72810.3,-8.81,-9.15,-9.37,0,*6E
1517821560.38,1395,7.31,72806.8,-8.81,-9.23,-9.37,0,*6A
1517821561.6,1396,7.31,72810.5,-8.83,-9.23,-9.37,0,*6B
1517821562.8,1397,7.31,72804.5,-8.83,-9.23,-9.27,0,*6B
1517821564.02,1398,7.31,72808.8,-8.83,-9.27,-9.37,0,*61
1517821565.24,1399,7.31,72810.0,-8.83,-9.23,-9.37,0,*64
1517821566.49,1400,7.31,72806.8,-8.81,-9.23,-9.37,0,*61
1517821567.72,1401,7.31,72802.0,-8.83,-9.11,-9.27,0,*62
1517821568.94,1402,7.31,72804.0,-8.83,-8.97,-9.15,0,*6F
1517821570.16,1403,7.31,72804.5,-8.83,-9.01,-9.15,0,*60
1517821571.41,1404,7.31,72806.5,-8.81,-9.01,-9.15,0,*65
1517821572.63,1405,7.31,72806.5,-8.83,-8.97,-9.11,0,*6C
1517821573.83,1406,7.31,72804.5,-8.83,-8.97,-8.97,0,*60
1517821575.03,1407,7.31,72806.8,-8.83,-8.89,-9.01,0,*60
1517821576.23,1408,7.31,72806.5,-8.83,-8.89,-8.97,0,*61
1517821577.43,1409,7.31,72802.5,-8.83,-8.97,-9.01,0,*61
1517821578.65,1410,7.31,72806.0,-8.81,-8.89,-8.97,0,*6A
1517821579.85,1411,7.31,72804.5,-8.83,-8.89,-8.97,0,*69
1517821581.05,1412,7.31,72804.8,-8.83,-8.89,-8.97,0,*6A
1517821582.29,1413,7.31,72804.5,-8.81,-8.81,-8.97,0,*61
1517821583.54,1414,7.31,72808.5,-8.81,-8.81,-8.85,0,*65
1517821584.78,1415,7.31,72806.0,-8.81,-8.81,-8.89,0,*68
1517821586.03,1416,7.31,72806.8,-8.81,-8.81,-8.89,0,*6B
1517821587.25,1417,7.31,72810.3,-8.77,-8.75,-8.85,0,*64
1517821588.48,1418,7.31,72808.3,-8.77,-8.75,-8.85,0,*6B
1517821589.71,1419,7.31,72808.0,-8.77,-8.75,-8.85,0,*6A
1517821590.96,1420,7.31,72810.3,-8.77,-8.81,-8.85,0,*6B
1517821592.18,1421,7.31,72810.0,-8.75,-8.71,-8.81,0,*63
1517821593.41,1422,7.31,72806.8,-8.77,-8.75,-8.85,0,*62
1517821594.64,1423,7.31,72806.3,-8.77,-8.75,-8.85,0,*63
1517821595.83,1424,7.31,72804.8,-8.75,-8.75,-8.85,0,*66
1517821597.06,1425,7.31,72806.5,-8.77,-8.75,-8.85,0,*65
1517821598.29,1426,7.31,72804.8,-8.77,-8.75,-8.85,0,*66
1517821599.54,1427,7.31,72806.8,-8.77,-8.81,-8.85,0,*6C
1517821600.73,1428,7.31,72804.5,-8.75,-8.71,-8.75,0,*61
1517821601.95,1429,7.31,72804.0,-8.75,-8.71,-8.81,0,*6B
1517821603.17,1430,7.31,72804.5,-8.75,-8.71,-8.81,0,*63
1517821604.4,1431,7.31,72808.8,-8.77,-8.75,-8.85,0,*60
1517821605.62,1432,7.31,72804.5,-8.75,-8.71,-8.81,0,*61
1517821606.84,1433,7.31,72804.0,-8.75,-8.71,-8.81,0,*60
1517821608.03,1434,7.31,72806.3,-8.75,-8.71,-8.71,0,*68
1517821609.23,1435,7.31,72806.5,-8.75,-8.71,-8.75,0,*6D
1517821610.42,1436,7.31,72804.0,-8.75,-8.71,-8.75,0,*6E
1517821611.62,1437,7.31,72804.5,-8.71,-8.67,-8.71,0,*68
1517821612.86,1438,7.31,72800.0,-8.73,-8.71,-8.81,0,*6D
1517821614.08,1439,7.31,72806.0,-8.73,-8.71,-8.75,0,*67
1517821615.28,1440,7.31,72806.8,-8.71,-8.71,-8.71,0,*6F
1517821616.53,1441,7.31,72804.0,-8.73,-8.71,-8.81,0,*63
1517821617.71,1442,7.31,72806.8,-8.71,-8.67,-8.75,0,*6E
1517821618.9,1443,7.31,72804.0,-8.71,-8.67,-8.75,0,*6F
1517821620.1,1444,7.31,72806.8,-8.71,-8.71,-8.75,0,*6F
1517821621.3,1445,7.31,72804.8,-8.71,-8.71,-8.75,0,*6E
1517821622.49,1446,7.31,72806.5,-8.71,-8.71,-8.75,0,*6D
1517821623.68,1447,7.31,72804.3,-8.71,-8.67,-8.75,0,*6B
1517821624.88,1448,7.31,72804.0,-8.71,-8.71,-8.75,0,*63
1517821626.07,1449,7.31,72806.5,-8.71,-8.67,-8.71,0,*61
1517821627.28,1450,7.31,72804.8,-8.69,-8.67,-8.71,0,*60
1517821628.5,1451,7.31,72806.3,-8.69,-8.67,-8.75,0,*65
1517821629.71,1452,7.31,72806.8,-8.69,-8.67,-8.75,0,*66
1517821630.93,1453,7.31,72804.5,-8.69,-8.67,-8.75,0,*67
1517821632.12,1454,7.31,72808.3,-8.67,-8.67,-8.75,0,*6E
1517821633.33,1455,7.31,72806.0,-8.69,-8.67,-8.75,0,*61
1517821634.56,1456,7.31,72808.3,-8.69,-8.71,-8.75,0,*65
1517821635.75,1457,7.31,72806.0,-8.67,-8.63,-8.71,0,*6D
1517821636.94,1458,7.31,72806.5,-8.67,-8.63,-8.71,0,*62
1517821638.16,1459,7.31,72808.0,-8.69,-8.67,-8.71,0,*69
1517821639.37,1460,7.31,72808.0,-8.69,-8.67,-8.71,0,*63
1517821640.56,1461,7.31,72808.5,-8.67,-8.67,-8.67,0,*6B
1517821641.75,1462,7.31,72810.0,-8.67,-8.63,-8.71,0,*6B
1517821642.94,1463,7.31,72806.3,-8.67,-8.67,-8.71,0,*6E
1517821644.15,1464,7.31,72800.3,-8.69,-8.67,-8.75,0,*63
1517821645.34,1465,7.31,72806.0,-8.67,-8.67,-8.71,0,*68
1517821646.53,1466,7.31,72806.5,-8.67,-8.63,-8.71,0,*6F
1517821647.72,1467,7.31,72804.0,-8.67,-8.67,-8.71,0,*6A
1517821648.94,1468,7.31,72808.8,-8.65,-8.67,-8.71,0,*67
1517821650.15,1469,7.31,72800.0,-8.65,-8.63,-8.71,0,*62
1517821651.34,1470,7.31,72806.3,-8.67,-8.63,-8.71,0,*68
1517821652.53,1471,7.31,72804.5,-8.67,-8.67,-8.71,0,*6D
1517821653.72,1472,7.31,72804.3,-8.67,-8.67,-8.71,0,*6E
1517821654.91,1473,7.31,72804.8,-8.67,-8.67,-8.71,0,*6F
1517821656.1,1474,7.31,72804.5,-8.67,-8.67,-8.71,0,*68
1517821657.34,1475,7.31,72808.8,-8.65,-8.71,-8.81,0,*63
1517821658.58,1476,7.31,72806.0,-8.65,-8.67,-8.81,0,*67
1517821659.82,1477,7.31,72802.5,-8.65,-8.71,-8.81,0,*61
1517821661.01,1478,7.31,72806.8,-8.63,-8.67,-8.71,0,*60
1517821662.19,1479,7.31,72806.3,-8.63,-8.67,-8.67,0,*66
1517821663.37,1480,7.31,72804.5,-8.63,-8.63,-8.67,0,*64
1517821664.56,1481,7.31,72808.8,-8.63,-8.67,-8.67,0,*61
1517821665.8,1482,7.31,72800.5,-8.65,-8.71,-8.81,0,*6B
1517821666.99,1483,7.31,72806.8,-8.63,-8.63,-8.75,0,*64
1517821668.17,1484,7.31,72804.5,-8.63,-8.67,-8.75,0,*67
1517821669.36,1485,7.31,72806.8,-8.63,-8.63,-8.75,0,*62
1517821670.55,1486,7.31,72804.8,-8.63,-8.63,-8.75,0,*61
1517821671.74,1487,7.31,72806.3,-8.63,-8.67,-8.75,0,*64
1517821672.93,1488,7.31,72806.0,-8.63,-8.63,-8.75,0,*6F
1517821674.12,1489,7.31,72804.5,-8.63,-8.63,-8.75,0,*6E
1517821675.3,1490,7.31,72808.0,-8.63,-8.67,-8.75,0,*62
1517821676.49,1491,7.31,72806.5,-8.63,-8.59,-8.75,0,*6E
1517821677.67,1492,7.31,72806.3,-8.63,-8.67,-8.75,0,*60
1517821678.86,1493,7.31,72806.3,-8.63,-8.63,-8.75,0,*65
1517821680.08,1494,7.31,72806.0,-8.61,-8.63,-8.75,0,*60
1517821681.3,1495,7.31,72804.8,-8.61,-8.63,-8.75,0,*61
1517821682.48,1496,7.31,72806.5,-8.59,-8.67,-8.75,0,*6D
1517821683.7,1497,7.31,72806.3,-8.61,-8.63,-8.75,0,*63
1517821684.88,1498,7.31,72804.8,-8.59,-8.67,-8.75,0,*63
1517821686.1,1499,7.31,72800.3,-8.61,-8.67,-8.75,0,*69
1517821687.32,1500,7.31,72806.8,-8.61,-8.63,-8.75,0,*6C
1517821688.53,1501,7.31,72806.8,-8.61,-8.67,-8.75,0,*69
1517821689.72,1502,7.31,72806.5,-8.59,-8.63,-8.71,0,*61
1517821690.9,1503,7.31,72806.5,-8.59,-8.55,-8.71,0,*65
1517821692.12,1504,7.31,72806.8,-8.61,-8.67,-8.75,0,*6C
1517821693.31,1505,7.31,72800.5,-8.59,-8.63,-8.75,0,*62
1517821694.49,1506,7.31,72802.0,-8.59,-8.59,-8.71,0,*6C
1517821695.67,1507,7.31,72804.3,-8.59,-8.63,-8.71,0,*64
1517821696.86,1508,7.31,72804.3,-8.59,-8.63,-8.71,0,*6B
1517821698.07,1509,7.31,72806.8,-8.59,-8.67,-8.81,0,*61
1517821699.25,1510,7.31,72804.3,-8.59,-8.59,-8.71,0,*6B
1517821700.43,1511,7.31,72804.0,-8.59,-8.63,-8.75,0,*67
1517821701.62,1512,7.31,72802.5,-8.59,-8.63,-8.71,0,*60
1517821702.81,1513,7.31,72804.0,-8.59,-8.63,-8.75,0,*65
1517821703.99,1514,7.31,72802.8,-8.55,-8.63,-8.75,0,*6E
1517821705.18,1515,7.31,72802.5,-8.55,-8.63,-8.75,0,*6F
1517821706.37,1516,7.31,72800.8,-8.55,-8.63,-8.75,0,*6C
1517821707.56,1517,7.31,72804.0,-8.55,-8.59,-8.71,0,*60
1517821708.75,1518,7.31,72806.8,-8.55,-8.63,-8.71,0,*66
1517821709.93,1519,7.31,72804.8,-8.55,-8.63,-8.71,0,*67
1517821711.12,1520,7.31,72802.5,-8.55,-8.63,-8.71,0,*6D
1517821712.32,1521,7.31,72806.0,-8.55,-8.59,-8.85,0,*6E
1517821713.53,1522,7.31,72804.5,-8.51,-8.55,-8.67,0,*69
1517821714.75,1523,7.31,72804.0,-8.51,-8.59,-8.71,0,*63
1517821715.93,1524,7.31,72804.3,-8.55,-8.63,-8.75,0,*6D
1517821717.14,1525,7.31,72804.0,-8.51,-8.59,-8.67,0,*62
1517821718.36,1526,7.31,72804.5,-8.51,-8.55,-8.67,0,*6D
1517821719.6,1527,7.31,72802.0,-8.51,-8.51,-8.67,0,*68
1517821720.79,1528,7.31,72804.5,-8.55,-8.63,-8.75,0,*61
1517821722.0,1529,7.31,72800.8,-8.51,-8.55,-8.67,0,*62
1517821723.18,1530,7.31,72802.3,-8.55,-8.59,-8.71,0,*65
1517821724.4,1531,7.31,72802.8,-8.51,-8.59,-8.75,0,*64
1517821725.61,1532,7.31,72804.5,-8.51,-8.59,-8.71,0,*63